Weather History for Watertown, WI

Change the Weather History Date:

Friday, March 14, 2014

  Actual Average Record
Temperature  
Mean Temperature 42 °F -  
Max Temperature 49 °F 40 °F 78 °F (2012)
Min Temperature 35 °F 25 °F -3 °F (1993)
Degree Days  
Heating Degree Days 23    
Moisture  
Dew Point 31 °F    
Average Humidity 70    
Maximum Humidity 89    
Minimum Humidity 51    
Precipitation  
Precipitation 0.00 in - - ()
Sea Level Pressure  
Sea Level Pressure 29.61 in    
Wind  
Wind Speed 11 mph (WSW)    
Max Wind Speed 26 mph    
Max Gust Speed 34 mph    
Visibility 10 miles    
Events      
Averages and records for this station are not official NWS values.
T = Trace of Precipitation, MM = Missing Value Source: NWS Daily Summary

Daily Weather History Graph

Daily Weather History Graph

Search for Another Location

Airport:

Trip Planner

Search our weather history database for the weather conditions in past years. The results will help you decide how hot, cold, wet, or windy it might be!

Date:

Astronomy

Mar. 14, 2014 Rise Set
Actual Time 7:08 AM CDT 7:00 PM CDT
Civil Twilight 6:40 AM CDT 7:28 PM CDT
Nautical Twilight 6:07 AM CDT 8:01 PM CDT
Astronomical Twilight 5:33 AM CDT 8:35 PM CDT
Moon 5:20 PM CDT (3/14) 5:51 AM CDT (3/14)
Length of Visible Light 12h 48m
Length of Day
11h 51m
Waxing Gibbous, 96% of the Moon is Illuminated
Mar 14
Waxing Gibbous
Mar 16
Full
Mar 23
Last Quarter
Mar 30
New
Apr 7
First Quarter

Hourly Weather History & Observations

Time (CDT) Temp. Windchill Dew Point Humidity Pressure Visibility Wind Dir Wind Speed Gust Speed Precip Events Conditions
12:15 AM 35.1 °F 28.6 °F 32.0 °F 89% 29.72 in 10.0 mi SSW 8.1 mph - N/A   Clear
12:35 AM 35.1 °F 28.6 °F 32.0 °F 89% 29.71 in 10.0 mi South 8.1 mph - N/A   Clear
12:55 AM 35.8 °F 29.4 °F 32.0 °F 86% 29.69 in 10.0 mi South 8.1 mph - N/A   Clear
1:15 AM 35.8 °F 28.8 °F 32.0 °F 86% 29.69 in 10.0 mi SSW 9.2 mph - N/A   Clear
1:35 AM 36.5 °F 28.2 °F 32.0 °F 84% 29.68 in 10.0 mi SSW 12.7 mph 18.4 mph N/A   Clear
1:55 AM 36.0 °F 29.0 °F 32.0 °F 86% 29.67 in 10.0 mi SSW 9.2 mph - N/A   Clear
2:15 AM 35.8 °F 28.3 °F 32.0 °F 86% 29.66 in 10.0 mi South 10.4 mph - N/A   Clear
2:35 AM 36.3 °F 29.5 °F 32.0 °F 84% 29.65 in 10.0 mi South 9.2 mph - N/A   Clear
2:55 AM 36.0 °F 30.3 °F 32.0 °F 86% 29.64 in 10.0 mi South 6.9 mph - N/A   Clear
3:15 AM 36.7 °F 29.4 °F 32.0 °F 83% 29.62 in 10.0 mi South 10.4 mph - N/A   Clear
3:35 AM 37.2 °F 30.0 °F 32.0 °F 81% 29.60 in 10.0 mi South 10.4 mph - N/A   Clear
3:55 AM 37.8 °F 30.7 °F 32.0 °F 80% 29.58 in 10.0 mi SSW 10.4 mph - N/A   Clear
4:15 AM 38.1 °F 30.7 °F 32.0 °F 79% 29.57 in 10.0 mi SSW 11.5 mph 17.3 mph N/A   Scattered Clouds
4:35 AM 38.3 °F 30.5 °F 31.8 °F 77% 29.56 in 10.0 mi SSW 12.7 mph 16.1 mph N/A   Scattered Clouds
4:55 AM 38.7 °F 30.5 °F 31.8 °F 76% 29.55 in 10.0 mi SSW 13.8 mph 18.4 mph N/A   Mostly Cloudy
5:15 AM 39.2 °F 30.8 °F 31.6 °F 74% 29.55 in 10.0 mi SSW 15.0 mph - N/A   Mostly Cloudy
5:35 AM 39.4 °F 31.4 °F 31.1 °F 72% 29.54 in 10.0 mi SSW 13.8 mph 18.4 mph N/A   Scattered Clouds
5:55 AM 39.4 °F 30.7 °F 30.7 °F 71% 29.53 in 10.0 mi SSW 16.1 mph 21.9 mph N/A   Clear
6:15 AM 39.9 °F 31.8 °F 30.2 °F 68% 29.52 in 10.0 mi SSW 15.0 mph 21.9 mph N/A   Clear
6:35 AM 39.7 °F 31.5 °F 30.2 °F 69% 29.51 in 10.0 mi SSW 15.0 mph 20.7 mph N/A   Clear
6:55 AM 40.1 °F 31.3 °F 30.0 °F 67% 29.50 in 10.0 mi SSW 17.3 mph 23.0 mph N/A   Clear
7:15 AM 40.1 °F 31.0 °F 29.8 °F 67% 29.50 in 10.0 mi SSW 18.4 mph 23.0 mph N/A   Clear
7:35 AM 40.1 °F 32.0 °F 29.8 °F 67% 29.51 in 10.0 mi SW 15.0 mph 21.9 mph N/A   Clear
7:55 AM 40.1 °F 32.7 °F 29.7 °F 66% 29.51 in 10.0 mi SW 12.7 mph 18.4 mph N/A   Clear
8:15 AM 39.7 °F 33.2 °F 29.8 °F 68% 29.51 in 10.0 mi SW 10.4 mph - N/A   Scattered Clouds
8:35 AM 40.6 °F 34.3 °F 29.7 °F 65% 29.51 in 10.0 mi SW 10.4 mph 19.6 mph N/A   Scattered Clouds
8:55 AM 41.0 °F 34.3 °F 29.8 °F 64% 29.51 in 10.0 mi SW 11.5 mph 16.1 mph N/A   Clear
9:15 AM 41.9 °F 35.9 °F 29.8 °F 62% 29.51 in 10.0 mi SW 10.4 mph - N/A   Clear
9:35 AM 43.7 °F 37.3 °F 30.4 °F 59% 29.51 in 10.0 mi SW 12.7 mph 20.7 mph N/A   Clear
9:55 AM 44.8 °F 38.7 °F 30.4 °F 57% 29.50 in 10.0 mi SW 12.7 mph 17.3 mph N/A   Clear
10:15 AM 45.0 °F 38.9 °F 30.4 °F 57% 29.50 in 10.0 mi SW 12.7 mph - N/A   Clear
10:35 AM 45.7 °F 40.6 °F 30.7 °F 56% 29.50 in 10.0 mi WSW 10.4 mph - N/A   Clear
10:55 AM 45.1 °F 40.8 °F 30.7 °F 57% 29.52 in 10.0 mi WSW 8.1 mph - N/A   Clear
11:15 AM 45.5 °F 39.2 °F 31.5 °F 58% 29.53 in 10.0 mi West 13.8 mph 18.4 mph N/A   Scattered Clouds
11:35 AM 45.0 °F 39.3 °F 31.6 °F 60% 29.52 in 10.0 mi WSW 11.5 mph - N/A   Scattered Clouds
11:55 AM 45.5 °F 41.3 °F 32.0 °F 59% 29.52 in 10.0 mi WSW 8.1 mph - N/A   Mostly Cloudy
12:15 PM 46.2 °F 41.7 °F 32.2 °F 58% 29.51 in 10.0 mi SW 9.2 mph - N/A   Mostly Cloudy
12:35 PM 47.8 °F - 32.4 °F 55% 29.51 in 10.0 mi WSW 9.2 mph - N/A   Clear
12:55 PM 48.2 °F - 32.4 °F 54% 29.52 in 10.0 mi West 17.3 mph 21.9 mph N/A   Clear
1:15 PM 48.6 °F - 32.4 °F 54% 29.52 in 10.0 mi West 13.8 mph 18.4 mph N/A   Clear
1:35 PM 49.1 °F - 32.2 °F 52% 29.53 in 10.0 mi WSW 13.8 mph 21.9 mph N/A   Clear
1:55 PM 48.6 °F - 31.1 °F 51% 29.53 in 10.0 mi West 18.4 mph 27.6 mph N/A   Clear
2:15 PM 48.6 °F - 31.3 °F 51% 29.54 in 10.0 mi West 16.1 mph 27.6 mph N/A   Clear
2:35 PM 48.4 °F - 31.5 °F 52% 29.54 in 10.0 mi West 18.4 mph 27.6 mph N/A   Clear
2:55 PM 48.2 °F - 31.1 °F 52% 29.55 in 10.0 mi WNW 26.5 mph 34.5 mph N/A   Clear
3:15 PM 46.4 °F 39.2 °F 30.9 °F 55% 29.57 in 10.0 mi West 18.4 mph 29.9 mph N/A   Scattered Clouds
3:35 PM 45.3 °F 37.8 °F 32.0 °F 60% 29.59 in 10.0 mi WNW 18.4 mph 29.9 mph N/A   Mostly Cloudy
3:55 PM 42.8 °F 35.8 °F 30.7 °F 62% 29.61 in 10.0 mi WNW 13.8 mph 27.6 mph N/A   Overcast
4:15 PM 40.3 °F 31.0 °F 30.7 °F 69% 29.63 in 10.0 mi West 19.6 mph 29.9 mph N/A   Overcast
4:35 PM 39.6 °F 31.0 °F 30.7 °F 71% 29.64 in 10.0 mi West 16.1 mph 23.0 mph N/A   Overcast
4:55 PM 39.6 °F 32.1 °F 30.9 °F 71% 29.65 in 10.0 mi West 12.7 mph 24.2 mph N/A   Overcast
5:15 PM 39.4 °F 32.3 °F 31.1 °F 72% 29.65 in 10.0 mi West 11.5 mph - N/A   Overcast
5:35 PM 39.6 °F 31.7 °F 31.3 °F 72% 29.66 in 10.0 mi West 13.8 mph 19.6 mph N/A   Overcast
5:55 PM 39.7 °F 32.7 °F 31.5 °F 72% 29.67 in 10.0 mi West 11.5 mph 18.4 mph N/A   Overcast
6:15 PM 39.7 °F 31.5 °F 31.5 °F 72% 29.68 in 10.0 mi West 15.0 mph 19.6 mph N/A   Overcast
6:35 PM 40.1 °F 32.4 °F 30.9 °F 70% 29.69 in 10.0 mi West 13.8 mph 19.6 mph N/A   Overcast
6:55 PM 39.2 °F 32.0 °F 30.4 °F 71% 29.70 in 10.0 mi WSW 11.5 mph 17.3 mph N/A   Scattered Clouds
7:15 PM 38.3 °F 33.2 °F 30.2 °F 73% 29.71 in 10.0 mi WSW 6.9 mph - N/A   Scattered Clouds
7:35 PM 37.4 °F 32.1 °F 30.2 °F 75% 29.71 in 10.0 mi WSW 6.9 mph - N/A   Scattered Clouds
7:55 PM 37.8 °F 31.3 °F 30.7 °F 76% 29.72 in 10.0 mi WSW 9.2 mph - N/A   Mostly Cloudy
8:15 PM 38.3 °F 31.9 °F 31.1 °F 75% 29.73 in 10.0 mi West 9.2 mph - N/A   Overcast
8:35 PM 38.5 °F 32.1 °F 31.1 °F 75% 29.74 in 10.0 mi West 9.2 mph - N/A   Overcast
8:55 PM 38.5 °F 32.7 °F 30.9 °F 74% 29.74 in 10.0 mi WSW 8.1 mph - N/A   Overcast
9:15 PM 38.3 °F 31.9 °F 30.7 °F 74% 29.75 in 10.0 mi WSW 9.2 mph - N/A   Overcast
9:35 PM 38.3 °F 31.4 °F 30.9 °F 75% 29.76 in 10.0 mi WSW 10.4 mph - N/A   Overcast
9:55 PM 38.3 °F 31.4 °F 29.8 °F 72% 29.76 in 10.0 mi West 10.4 mph 17.3 mph N/A   Overcast
10:15 PM 37.8 °F 31.8 °F 29.7 °F 73% 29.77 in 10.0 mi West 8.1 mph - N/A   Overcast
10:35 PM 37.6 °F 31.6 °F 30.0 °F 74% 29.77 in 10.0 mi West 8.1 mph - N/A   Overcast
10:55 PM 37.4 °F 30.3 °F 30.2 °F 75% 29.77 in 10.0 mi West 10.4 mph - N/A   Overcast
11:15 PM 37.4 °F 31.4 °F 29.8 °F 74% 29.78 in 10.0 mi West 8.1 mph - N/A   Overcast
11:35 PM 36.9 °F 30.1 °F 29.7 °F 75% 29.78 in 10.0 mi WNW 9.2 mph - N/A   Overcast
11:55 PM 36.5 °F 29.2 °F 29.5 °F 76% 29.79 in 10.0 mi West 10.4 mph - N/A   Overcast